Terminal Aerodrome Forecast
Issued by NWS Charleston, WV

Home | Current Version | Previous Version | Text Only | Print | Product List | Glossary On
Versions: 1 2 3 4 5 6 7 8 9 10 11 12 13 14 15 16 17 18 19 20 21 22 23 24
000
FTUS41 KRLX 311100
TAFPKB
TAF
KPKB 311127Z 3112/0112 00000KT P6SM OVC050
     FM311300 VRB03KT 6SM -SHRA BR OVC040
     FM312100 VRB03KT 2SM -SHRA BR OVC030
     FM312200 00000KT 3SM -SHRA BR OVC030
     FM010500 VRB03KT 4SM -RA BR OVC010
     FM011000 36008KT 6SM BR OVC015=

USA.gov is the U.S. government's official web portal to all federal, state and local government web resources and services.